Location: Caltech
(34.1382°N, 118.1253°W)
Time: 21:12:44
(UTC-07:00)

Cosmos 1833 - Visible Passes

Search period start: 27 July 2014 00:00
Search period end: 06 August 2014 00:00
Orbit: 845 x 854 km, 70.9° (Epoch: 27 July)

Date Brightness Start Highest point End Pass type
(mag) Time Alt. Az. Time Alt. Az. Time Alt. Az.
27 Jul 4.7 20:44:48 10° S 20:49:59 38° ESE 20:55:10 10° NE visible
27 Jul 6.3 22:29:38 10° WSW 22:34:15 25° WNW 22:38:53 10° N visible
28 Jul 4.7 20:32:11 10° S 20:37:20 38° ESE 20:42:31 10° NE visible
28 Jul 6.3 22:16:59 10° WSW 22:21:36 26° WNW 22:26:15 10° N visible
29 Jul 7.8 05:34:11 10° NE 05:34:57 10° NE 05:35:43 10° ENE visible
29 Jul 4.7 20:19:33 10° S 20:24:42 37° ESE 20:29:52 10° NE visible
29 Jul 6.3 22:04:19 10° WSW 22:08:57 26° WNW 22:13:37 10° N visible
30 Jul 7.8 05:21:42 10° NE 05:22:18 10° NE 05:22:54 10° ENE visible
30 Jul 6.4 21:51:39 10° WSW 21:56:19 26° WNW 22:00:59 10° N visible
31 Jul 7.9 05:09:16 10° NE 05:09:39 10° NE 05:10:01 10° NE visible
31 Jul 6.4 21:38:59 10° WSW 21:43:40 26° WNW 21:48:21 10° N visible
01 Aug 6.5 21:26:20 10° WSW 21:31:01 26° WNW 21:35:43 10° N visible
02 Aug 6.5 21:13:40 10° WSW 21:18:22 27° WNW 21:23:05 10° N visible
03 Aug 6.5 21:01:01 10° WSW 21:05:43 27° WNW 21:10:27 10° N visible
04 Aug 6.6 20:48:21 10° WSW 20:53:05 27° WNW 20:57:50 10° N visible
05 Aug 6.6 20:35:42 10° WSW 20:40:26 27° WNW 20:45:12 10° N visible
